Date String (YYYY-MM-DD hh:mm:ss) UTC,Instrument flags,Ambient pressure (hPa),Sample flow (lpm),Bypass flow (lpm),Sample temperature (°C),Ambient temperature (°C),ASC tube jacket temperature (°C),LED temperature (°C),Box temperature (°C),Sample RH (%),Span deviation,Mass concentration (μg/m³),Mass concentration (μg/m³),Mass concentration (μg/m³)
DateTimeUTC,F1_M11,P_M11,Q1_M11,Q2_M11,T1_M11,T2_M11,T3_M11,T4_M11,T5_M11,U1_M11,ZSPAN_M11,X2_M11,X0_M11,X1_M11
2022-06-04 11:00:00,,0822.3,4.99,0.00,28.8,27.7,00.0,37.8,30.6,23.9,0000.0,0005.73,0011.57,0005.00
2022-06-04 11:01:00,,0822.3,5.00,0.00,28.7,27.6,00.0,37.8,30.6,24.0,0000.0,0005.79,0011.67,0005.00
2022-06-04 11:02:00,,0822.3,5.00,0.00,28.7,27.6,00.0,37.8,30.5,24.1,0000.0,0005.84,0011.47,0005.01
2022-06-04 11:03:00,,0822.3,5.01,0.00,28.7,27.6,00.0,37.8,30.5,24.1,-000.0,0005.86,0011.40,0005.00
2022-06-04 11:04:00,,0822.3,5.00,0.00,28.7,27.5,00.0,37.7,30.5,24.1,-000.2,0005.84,0011.26,0004.98
2022-06-04 11:05:00,,0822.4,4.99,0.00,28.7,27.5,00.0,37.7,30.4,23.8,0000.0,0005.80,0010.80,0004.95
2022-06-04 11:06:00,,0822.3,5.00,0.00,28.6,27.5,00.0,37.7,30.4,24.0,0000.0,0005.80,0010.75,0004.95
2022-06-04 11:07:00,,0822.3,5.00,0.00,28.6,27.5,00.0,37.7,30.4,23.7,0000.0,0005.74,0011.54,0004.94
2022-06-04 11:08:00,,0822.3,5.00,0.00,28.6,27.4,00.0,37.7,30.4,23.5,0000.0,0005.74,0011.28,0004.95
2022-06-04 11:09:00,,0822.3,4.99,0.00,28.6,27.4,00.0,37.7,30.4,23.5,0000.0,0005.78,0011.66,0004.96
2022-06-04 11:10:00,,0822.3,5.00,0.00,28.6,27.4,00.0,37.6,30.4,23.6,0000.0,0005.77,0011.72,0004.94
2022-06-04 11:11:00,,0822.3,4.99,0.00,28.6,27.4,00.0,37.6,30.4,23.5,0000.0,0005.74,0011.84,0004.91
2022-06-04 11:12:00,,0822.3,5.00,0.00,28.6,27.4,00.0,37.6,30.4,23.5,0000.0,0005.69,0011.80,0004.87
2022-06-04 11:13:00,,0822.3,5.00,0.00,28.6,27.4,00.0,37.6,30.4,23.5,0000.0,0005.66,0011.78,0004.84
2022-06-04 11:14:00,,0822.3,5.02,0.00,28.6,27.4,00.0,37.6,30.4,23.5,0000.0,0005.60,0011.67,0004.83
2022-06-04 11:15:00,,0822.2,5.00,0.00,28.6,27.4,00.0,37.6,30.4,23.5,0000.0,0005.58,0011.62,0004.82
2022-06-04 11:16:00,,0822.2,4.99,0.00,28.5,27.4,00.0,37.6,30.4,23.6,0000.0,0005.58,0011.53,0004.83
2022-06-04 11:17:00,,0822.2,5.00,0.00,28.5,27.4,00.0,37.6,30.4,23.6,0000.0,0005.63,0011.43,0004.84
2022-06-04 11:18:00,,0822.2,5.01,0.00,28.5,27.4,00.0,37.6,30.3,23.7,0000.0,0005.70,0010.26,0004.87
2022-06-04 11:19:00,,0822.2,4.99,0.00,28.5,27.4,00.0,37.5,30.3,23.7,0000.0,0005.72,0010.30,0004.90
2022-06-04 11:20:00,,0822.2,5.00,0.00,28.5,27.4,00.0,37.5,30.3,23.7,0000.0,0005.73,0009.90,0004.93
2022-06-04 11:21:00,,0822.2,5.00,0.00,28.5,27.4,00.0,37.5,30.3,23.8,0000.0,0005.72,0009.91,0004.95
2022-06-04 11:22:00,,0822.3,5.01,0.00,28.5,27.4,00.0,37.5,30.3,23.8,0000.0,0005.74,0010.14,0004.97
2022-06-04 11:23:00,,0822.2,5.01,0.00,28.5,27.4,00.0,37.5,30.3,23.9,0000.0,0005.74,0010.43,0005.00
2022-06-04 11:24:00,,0822.3,5.00,0.00,28.5,27.3,00.0,37.5,30.3,23.9,0000.0,0005.78,0010.56,0005.03
2022-06-04 11:25:00,,0822.3,5.00,0.00,28.5,27.3,00.0,37.5,30.3,23.9,0000.0,0005.79,0010.60,0005.05
2022-06-04 11:26:00,,0822.3,4.99,0.00,28.5,27.4,00.0,37.5,30.3,23.9,0000.0,0005.79,0010.61,0005.07
2022-06-04 11:27:00,,0822.3,5.00,0.00,28.5,27.4,00.0,37.5,30.3,23.9,0000.0,0005.83,0011.16,0005.10
2022-06-04 11:28:00,,0822.3,5.01,0.00,28.5,27.4,00.0,37.5,30.3,24.0,0000.0,0005.85,0011.28,0005.12
2022-06-04 11:29:00,,0822.3,5.00,0.00,28.5,27.4,00.0,37.5,30.3,24.0,0000.0,0005.83,0011.29,0005.12
2022-06-04 11:30:00,,0822.2,4.99,0.00,28.5,27.4,00.0,37.5,30.3,24.0,0000.0,0005.82,0011.50,0005.12
2022-06-04 11:31:00,,0822.2,5.00,0.00,28.5,27.4,00.0,37.5,30.3,24.1,0000.0,0005.81,0011.40,0005.13
2022-06-04 11:32:00,,0822.2,5.00,0.00,28.4,27.3,00.0,37.5,30.2,24.1,0000.0,0005.85,0011.61,0005.15
2022-06-04 11:33:00,,0822.2,4.99,0.00,28.4,27.3,00.0,37.4,30.2,24.2,0000.0,0005.89,0012.05,0005.18
2022-06-04 11:34:00,,0822.2,5.00,0.00,28.4,27.3,00.0,37.4,30.2,24.2,0000.0,0005.93,0012.05,0005.20
2022-06-04 11:35:00,,0822.2,5.00,0.00,28.4,27.2,00.0,37.4,30.1,24.3,0000.0,0005.93,0011.97,0005.21
2022-06-04 11:36:00,,0822.2,5.00,0.00,28.3,27.2,00.0,37.4,30.1,24.5,0000.0,0005.92,0012.07,0005.23
2022-06-04 11:37:00,,0822.1,5.00,0.00,28.3,27.2,00.0,37.4,30.1,24.8,0000.0,0005.92,0012.17,0005.25
2022-06-04 11:38:00,,0822.2,5.00,0.00,28.3,27.1,00.0,37.4,30.1,26.1,0000.0,0005.94,0011.84,0005.27
2022-06-04 11:39:00,,0822.1,5.00,0.00,28.3,27.1,00.0,37.3,30.1,25.7,0000.0,0005.96,0011.77,0005.30
2022-06-04 11:40:00,,0822.2,5.00,0.00,28.3,27.1,00.0,37.3,30.1,25.4,0000.0,0005.99,0012.35,0005.34
2022-06-04 11:41:00,,0822.1,5.01,0.00,28.3,27.1,00.0,37.3,30.0,25.4,0000.0,0006.07,0012.19,0005.38
2022-06-04 11:42:00,,0822.1,5.01,0.00,28.2,27.1,00.0,37.3,30.0,25.5,0000.0,0006.12,0012.55,0005.41
2022-06-04 11:43:00,,0822.2,5.00,0.00,28.2,27.1,00.0,37.3,30.0,25.5,0000.0,0006.12,0012.53,0005.43
2022-06-04 11:44:00,,0822.2,5.00,0.00,28.2,27.1,00.0,37.3,30.0,25.4,0000.0,0006.12,0012.49,0005.45
2022-06-04 11:45:00,,0822.2,4.99,0.00,28.2,27.1,00.0,37.3,30.0,25.3,-000.4,0006.15,0012.76,0005.48
2022-06-04 11:46:00,,0822.2,5.00,0.00,28.2,27.1,00.0,37.3,30.0,25.1,-000.7,0006.16,0013.19,0005.51
2022-06-04 11:47:00,,0822.2,5.00,0.00,28.2,27.1,00.0,37.3,30.0,24.8,-000.1,0006.22,0013.51,0005.52
2022-06-04 11:48:00,,0822.1,5.00,0.00,28.2,27.0,00.0,37.2,30.0,24.7,0000.1,0006.24,0013.25,0005.53
2022-06-04 11:49:00,,0822.1,4.99,0.00,28.2,27.0,00.0,37.2,30.0,24.9,0000.2,0006.24,0013.66,0005.52
2022-06-04 11:50:00,,0822.1,5.00,0.00,28.2,27.0,00.0,37.2,30.0,24.7,0000.2,0006.21,0014.04,0005.50
2022-06-04 11:51:00,,0822.1,5.00,0.00,28.2,27.0,00.0,37.2,30.0,24.9,-000.0,0006.19,0013.35,0005.49
2022-06-04 11:52:00,,0822.1,5.01,0.00,28.1,27.0,00.0,37.2,29.9,24.6,0000.0,0006.16,0013.55,0005.47
2022-06-04 11:53:00,,0822.1,5.01,0.00,28.1,27.0,00.0,37.2,29.9,24.3,0000.0,0006.15,0013.38,0005.45
2022-06-04 11:54:00,,0822.1,5.01,0.00,28.1,27.0,00.0,37.2,29.9,23.9,0000.0,0006.11,0013.22,0005.41
2022-06-04 11:55:00,,0822.1,5.00,0.00,28.1,27.0,00.0,37.2,29.9,24.0,0000.0,0006.09,0012.46,0005.36
2022-06-04 11:56:00,,0822.1,5.00,0.00,28.1,27.0,00.0,37.2,29.9,24.2,0000.0,0006.08,0011.78,0005.32
2022-06-04 11:57:00,,0822.1,4.99,0.00,28.1,27.0,00.0,37.1,29.9,24.1,0000.0,0006.06,0011.24,0005.28
2022-06-04 11:58:00,,0822.1,5.00,0.00,28.1,26.9,00.0,37.1,29.9,23.8,0000.0,0005.98,0010.94,0005.24
2022-06-04 11:59:00,,0822.1,5.00,0.00,28.1,26.9,00.0,37.1,29.9,23.8,0000.0,0005.94,0011.18,0005.20
